Weather History for Biloxi, MS

Change the Weather History Date:

Sunday, April 14, 2013

  Actual Average Record
Temperature  
Mean Temperature 64 °F -  
Max Temperature 68 °F 76 °F 84 °F (2001)
Min Temperature 58 °F 60 °F 40 °F (1959)
Degree Days  
Heating Degree Days 2    
Growing Degree Days 14 (Base 50)    
Moisture  
Dew Point 59 °F    
Average Humidity 90    
Maximum Humidity 100    
Minimum Humidity 68    
Precipitation  
Precipitation 2.22 in - - ()
Sea Level Pressure  
Sea Level Pressure 29.84 in    
Wind  
Wind Speed 10 mph (NE)    
Max Wind Speed 30 mph    
Max Gust Speed 39 mph    
Visibility 6 miles    
Events Fog , Rain , Thunderstorm    
Averages and records for this station are not official NWS values.
T = Trace of Precipitation, MM = Missing Value Source: NWS Daily Summary

Daily Weather History Graph

Daily Weather History Graph

Search for Another Location

Airport:

Trip Planner

Search our weather history database for the weather conditions in past years. The results will help you decide how hot, cold, wet, or windy it might be!

Date:

Astronomy

Apr. 14, 2013 Rise Set
Actual Time 6:29 AM CDT 7:22 PM CDT
Civil Twilight 6:04 AM CDT 7:47 PM CDT
Nautical Twilight 5:35 AM CDT 8:16 PM CDT
Astronomical Twilight 5:05 AM CDT 8:46 PM CDT
Moon 9:18 AM CDT (4/14) 11:23 PM CDT (4/14)
Length of Visible Light 13h 42m
Length of Day
12h 53m
Waxing Crescent, 17% of the Moon is Illuminated
Apr 14
Waxing Crescent
Apr 18
First Quarter
Apr 25
Full
May 2
Last Quarter
May 9
New

Hourly Weather History & Observations

Time (CDT) Temp. Dew Point Humidity Pressure Visibility Wind Dir Wind Speed Gust Speed Precip Events Conditions
12:58 AM 64.9 °F 57.2 °F 76% 29.86 in 10.0 mi East 10.4 mph - N/A   Scattered Clouds
1:58 AM 65.1 °F 57.7 °F 77% 29.91 in 10.0 mi SW 3.5 mph - N/A Thunderstorm Mostly Cloudy
1:59 AM 64.4 °F 57.2 °F 77% 29.91 in 10.0 mi SW 5.8 mph - N/A Thunderstorm Thunderstorm
2:00 AM 64.4 °F 59.0 °F 83% 29.92 in 10.0 mi SW 5.8 mph - N/A Rain , Thunderstorm Light Thunderstorms and Rain
2:05 AM 64.4 °F 59.0 °F 83% 29.93 in 6.0 mi South 10.4 mph - N/A Rain , Thunderstorm Thunderstorms and Rain
2:10 AM 64.4 °F 57.2 °F 77% 29.93 in 4.0 mi SSW 15.0 mph 24.2 mph N/A Rain , Thunderstorm Heavy Thunderstorms and Rain
2:15 AM 64.4 °F 53.6 °F 68% 29.91 in 3.0 mi SSW 8.1 mph 24.2 mph N/A Rain , Thunderstorm Heavy Thunderstorms and Rain
2:30 AM 59.0 °F 53.6 °F 82% 29.88 in 4.0 mi East 8.1 mph - N/A Rain , Thunderstorm Light Thunderstorms and Rain
2:35 AM 60.8 °F 53.6 °F 77% 29.86 in 7.0 mi ESE 9.2 mph 17.3 mph N/A Rain , Thunderstorm Light Thunderstorms and Rain
2:50 AM 62.6 °F 55.4 °F 77% 29.85 in 10.0 mi East 5.8 mph - N/A Rain , Thunderstorm Light Thunderstorms and Rain
2:51 AM 62.6 °F 55.4 °F 77% 29.86 in 10.0 mi East 4.6 mph - N/A   Overcast
2:58 AM 63.1 °F 54.7 °F 74% 29.86 in 10.0 mi East 6.9 mph - 0.24 in   Overcast
3:47 AM 62.6 °F 59.0 °F 88% 29.84 in 10.0 mi NE 5.8 mph - N/A Rain Light Rain
3:58 AM 62.2 °F 59.0 °F 89% 29.83 in 10.0 mi NE 8.1 mph - 0.00 in Rain Light Rain
4:14 AM 60.8 °F 59.0 °F 94% 29.82 in 10.0 mi NE 5.8 mph - N/A   Mostly Cloudy
4:58 AM 61.5 °F 58.6 °F 90% 29.88 in 8.0 mi Variable 3.5 mph - 0.00 in Thunderstorm Overcast
4:59 AM 60.8 °F 59.0 °F 94% 29.86 in 7.0 mi Variable 2.3 mph - N/A Rain , Thunderstorm Rain
5:04 AM 60.8 °F 59.0 °F 94% 29.84 in 4.0 mi NE 9.2 mph - N/A Rain , Thunderstorm Heavy Rain
5:14 AM 60.8 °F 59.0 °F 94% 29.84 in 5.0 mi ENE 8.1 mph - N/A Rain Rain
5:19 AM 60.8 °F 59.0 °F 94% 29.83 in 5.0 mi NE 12.7 mph - N/A Rain Rain
5:24 AM 60.8 °F 59.0 °F 94% 29.83 in 7.0 mi NE 13.8 mph - N/A Rain Light Rain
5:29 AM 60.8 °F 59.0 °F 94% 29.82 in 10.0 mi NE 13.8 mph - N/A Rain Light Rain
5:31 AM 60.8 °F 59.0 °F 94% 29.82 in 10.0 mi NE 15.0 mph - N/A   Overcast
5:36 AM 60.8 °F 59.0 °F 94% 29.83 in 10.0 mi NE 13.8 mph - N/A   Overcast
5:51 AM 60.8 °F 59.0 °F 94% 29.84 in 10.0 mi NE 13.8 mph - N/A Rain Light Rain
5:56 AM 60.8 °F 59.0 °F 94% 29.83 in 7.0 mi NE 15.0 mph - N/A Rain Rain
5:58 AM 61.2 °F 58.8 °F 92% 29.85 in 6.0 mi NE 15.0 mph - 0.11 in Rain Rain
6:03 AM 60.8 °F 59.0 °F 94% 29.84 in 5.0 mi NNE 11.5 mph 18.4 mph N/A Rain Heavy Rain
6:13 AM 60.8 °F 59.0 °F 94% 29.83 in 7.0 mi NE 17.3 mph - N/A Rain Light Rain
6:18 AM 60.8 °F 59.0 °F 94% 29.83 in 6.0 mi NE 15.0 mph - N/A Rain Heavy Rain
6:23 AM 60.8 °F 59.0 °F 94% 29.82 in 4.0 mi NNE 17.3 mph - N/A Rain Heavy Rain
6:24 AM 60.8 °F 59.0 °F 94% 29.82 in 5.0 mi NNE 16.1 mph - N/A Rain , Thunderstorm Heavy Thunderstorms and Rain
6:29 AM 60.8 °F 59.0 °F 94% 29.80 in 5.0 mi NNE 18.4 mph 24.2 mph N/A Rain , Thunderstorm Heavy Thunderstorms and Rain
6:39 AM 59.0 °F 57.2 °F 94% 29.83 in 2.5 mi NNE 12.7 mph 24.2 mph N/A Rain , Thunderstorm Heavy Thunderstorms and Rain
6:44 AM 59.0 °F 57.2 °F 94% 29.83 in 2.0 mi NNE 10.4 mph - N/A Rain , Thunderstorm Heavy Thunderstorms and Rain
6:49 AM 59.0 °F 57.2 °F 94% 29.84 in 3.0 mi NE 8.1 mph - N/A Rain , Thunderstorm Thunderstorms and Rain
6:54 AM 59.0 °F 57.2 °F 94% 29.85 in 4.0 mi NE 8.1 mph - N/A Rain , Thunderstorm Light Thunderstorms and Rain
6:58 AM 59.4 °F 57.7 °F 94% 29.87 in 5.0 mi ENE 5.8 mph - 0.43 in Rain , Thunderstorm Light Thunderstorms and Rain
7:18 AM 59.0 °F 57.2 °F 94% 29.84 in 5.0 mi ENE 10.4 mph - N/A Rain , Thunderstorm Thunderstorms and Rain
7:28 AM 59.0 °F 59.0 °F 100% 29.83 in 4.0 mi ENE 11.5 mph - N/A Rain , Thunderstorm Light Thunderstorms and Rain
7:33 AM 59.0 °F 59.0 °F 100% 29.80 in 4.0 mi East 16.1 mph - N/A Rain , Thunderstorm Light Thunderstorms and Rain
7:55 AM 59.0 °F 59.0 °F 100% 29.80 in 8.0 mi ENE 12.7 mph - N/A Rain Light Rain
7:58 AM 59.0 °F 59.0 °F 100% 29.81 in 9.0 mi ENE 13.8 mph - 0.15 in Rain Light Rain
8:03 AM 60.8 °F 59.0 °F 94% 29.79 in 10.0 mi ENE 13.8 mph - N/A Rain Light Rain
8:08 AM 60.8 °F 59.0 °F 94% 29.77 in 10.0 mi ENE 16.1 mph - N/A Rain Light Rain
8:18 AM 60.8 °F 59.0 °F 94% 29.76 in 7.0 mi ENE 11.5 mph - N/A Rain Light Rain
8:28 AM 60.8 °F 59.0 °F 94% 29.78 in 9.0 mi Variable 5.8 mph 19.6 mph N/A Rain , Thunderstorm Light Rain
8:36 AM 60.8 °F 59.0 °F 94% 29.80 in 2.5 mi North 12.7 mph 19.6 mph N/A Rain , Thunderstorm Heavy Rain
8:41 AM 60.8 °F 59.0 °F 94% 29.82 in 2.0 mi NNE 13.8 mph 21.9 mph N/A Rain , Thunderstorm Heavy Rain
8:46 AM 60.8 °F 59.0 °F 94% 29.89 in 1.8 mi NW 10.4 mph 21.9 mph N/A Rain Heavy Rain
8:51 AM 60.8 °F 59.0 °F 94% 29.88 in 1.2 mi NNW 15.0 mph 29.9 mph N/A Rain Heavy Rain
8:56 AM 59.0 °F 57.2 °F 94% 29.85 in 0.5 mi NNW 20.7 mph 29.9 mph N/A Rain Heavy Rain
8:58 AM 59.0 °F 57.2 °F 94% 29.86 in 0.5 mi NNW 18.4 mph 29.9 mph 0.42 in Fog , Rain Heavy Rain
9:03 AM 59.0 °F 57.2 °F 94% 29.86 in 0.5 mi North 17.3 mph 29.9 mph N/A Fog , Rain Heavy Rain
9:08 AM 59.0 °F 57.2 °F 94% 29.92 in 1.0 mi NNW 13.8 mph 29.9 mph N/A Rain Heavy Rain
9:13 AM 59.0 °F 57.2 °F 94% 29.92 in 2.5 mi NNW 13.8 mph 31.1 mph N/A Rain , Thunderstorm Heavy Rain
9:16 AM 59.0 °F 57.2 °F 94% 29.90 in 2.0 mi NNE 12.7 mph 31.1 mph N/A Rain , Thunderstorm Heavy Rain
9:17 AM 59.0 °F 57.2 °F 94% 29.88 in 1.8 mi NNE 11.5 mph 31.1 mph N/A Rain , Thunderstorm Heavy Thunderstorms and Rain
9:22 AM 59.0 °F 57.2 °F 94% 29.83 in 1.5 mi NNE 29.9 mph 35.7 mph N/A Rain , Thunderstorm Heavy Thunderstorms and Rain
9:27 AM 59.0 °F 57.2 °F 94% 29.85 in 1.0 mi NNE 20.7 mph 35.7 mph N/A Rain , Thunderstorm Heavy Thunderstorms and Rain
9:32 AM 59.0 °F 57.2 °F 94% 29.82 in 1.2 mi NE 27.6 mph 35.7 mph N/A Rain , Thunderstorm Thunderstorms and Rain
9:34 AM 59.0 °F 57.2 °F 94% 29.82 in 3.0 mi NE 26.5 mph 35.7 mph N/A Rain , Thunderstorm Rain
9:44 AM 59.0 °F 55.4 °F 88% 29.80 in 10.0 mi ENE 24.2 mph 39.1 mph N/A Rain , Thunderstorm Light Thunderstorms and Rain
9:58 AM 58.8 °F 56.3 °F 91% 29.84 in 10.0 mi ENE 13.8 mph 29.9 mph 0.46 in Rain , Thunderstorm Light Thunderstorms and Rain
10:13 AM 59.0 °F 55.4 °F 88% 29.84 in 10.0 mi ENE 10.4 mph - N/A Rain Light Rain
10:32 AM 59.0 °F 57.2 °F 94% 29.87 in 10.0 mi Variable 5.8 mph - N/A Rain , Thunderstorm Light Thunderstorms and Rain
10:52 AM 59.0 °F 57.2 °F 94% 29.91 in 1.0 mi NNW 10.4 mph - N/A Rain , Thunderstorm Thunderstorms and Rain
10:57 AM 59.0 °F 57.2 °F 94% 29.92 in 0.8 mi North 6.9 mph - N/A Rain , Thunderstorm Heavy Thunderstorms and Rain
10:58 AM 58.8 °F 56.7 °F 93% 29.93 in 0.8 mi North 8.1 mph - 0.29 in Rain , Thunderstorm Heavy Thunderstorms and Rain
11:03 AM 59.0 °F 57.2 °F 94% 29.93 in 0.8 mi North 10.4 mph - N/A Rain , Thunderstorm Heavy Thunderstorms and Rain
11:08 AM 59.0 °F 57.2 °F 94% 29.91 in 2.0 mi North 10.4 mph - N/A Rain , Thunderstorm Light Thunderstorms and Rain
11:13 AM 59.0 °F 57.2 °F 94% 29.91 in 6.0 mi North 10.4 mph - N/A Rain , Thunderstorm Light Thunderstorms and Rain
11:22 AM 59.0 °F 57.2 °F 94% 29.90 in 10.0 mi North 10.4 mph - N/A Thunderstorm Overcast
11:58 AM 59.0 °F 57.0 °F 93% 29.87 in 10.0 mi ENE 11.5 mph - 0.12 in Thunderstorm Mostly Cloudy
12:58 PM 59.4 °F 56.8 °F 91% 29.80 in 10.0 mi East 12.7 mph - N/A   Partly Cloudy
1:58 PM 64.4 °F 59.5 °F 84% 29.78 in 10.0 mi ENE 8.1 mph - N/A   Clear
2:58 PM 68.0 °F 59.9 °F 75% 29.78 in 10.0 mi ESE 13.8 mph - N/A   Scattered Clouds
3:08 PM 68.0 °F 60.8 °F 78% 29.77 in 10.0 mi ESE 13.8 mph - N/A   Mostly Cloudy
3:58 PM 68.4 °F 61.5 °F 79% 29.79 in 10.0 mi SE 17.3 mph - N/A   Mostly Cloudy
4:58 PM 68.4 °F 62.1 °F 80% 29.80 in 10.0 mi SE 11.5 mph - N/A   Overcast
5:58 PM 68.4 °F 62.6 °F 82% 29.81 in 10.0 mi SE 9.2 mph - N/A   Overcast
6:43 PM 68.0 °F 64.4 °F 88% 29.79 in 10.0 mi ESE 5.8 mph - N/A   Overcast
6:58 PM 68.4 °F 64.0 °F 86% 29.80 in 10.0 mi East 4.6 mph - N/A   Overcast
7:58 PM 67.5 °F 64.2 °F 89% 29.79 in 10.0 mi ENE 2.3 mph - N/A   Overcast
8:58 PM 67.1 °F 64.0 °F 90% 29.81 in 10.0 mi East 4.6 mph - N/A   Overcast
9:23 PM 66.2 °F 64.4 °F 94% 29.81 in 10.0 mi East 4.6 mph - N/A   Scattered Clouds
9:58 PM 66.7 °F 64.4 °F 92% 29.84 in 10.0 mi ESE 3.5 mph - N/A   Partly Cloudy
10:58 PM 66.0 °F 64.0 °F 93% 29.84 in 10.0 mi SSE 4.6 mph - N/A   Scattered Clouds
11:08 PM 68.0 °F 66.2 °F 94% 29.82 in 10.0 mi South 5.8 mph - N/A   Mostly Cloudy
11:33 PM 69.8 °F 66.2 °F 88% 29.82 in 10.0 mi South 5.8 mph - N/A   Overcast
11:58 PM 68.9 °F 66.2 °F 91% 29.83 in 10.0 mi SW 8.1 mph - N/A   Overcast